Probability
0 0 0 0 0 0 0 0 0 0 0 0 0 0 0 0 3 3 3 6 3 0 0 0 0 0 0 3 3 6 6 3 0 0 0 0 0 0 0 0 0 0 0 0
0 0 0 0 0 0 0 0 0 0 0 0 0 0 0 0 0 3 3 6 6 6 3 0 0 0 0 3 3 3 6 6 3 0 0 0 0 0 0 0 0 0 0 0
0 0 0 0 0 0 0 0 0 0 0 0 0 0 0 0 0 0 0 6 6 0 0 0 0 0 0 0 3 3 3 6 6 0 0 0 0 0 0 0 0 0 0 0
0 0 0 0 0 0 0 0 0 0 0 0 0 0 0 0 0 0 0 3 6 3 3 0 0 0 0 3 3 3 3 3 3 0 0 0 0 0 0 0 0 0 0 0
0 0 0 0 0 0 0 0 0 0 0 0 0 0 0 0 0 0 0 0 0 3 3 0 0 0 0 3 3 3 3 3 3 0 0 0 0 0 0 0 0 0 0 0
0 0 0 0 0 0 0 0 0 0 0 0 0 0 0 0 0 0 0 0 0 0 0 3 3 0 0 0 0 0 0 3 3 0 0 3 0 0 0 0 0 0 0 0
0 0 0 0 0 0 0 0 0 0 0 0 0 0 0 0 0 0 0 0 0 0 0 0 3 0 0 0 0 0 0 3 3 0 0 0 0 0 0 0 0 0 0 0
0 0 0 0 0 0 0 0 0 0 0 0 0 0 0 0 0 0 0 0 0 0 0 3 6 3 0 0 0 6 6 3 6 3 0 3 3 0 0 0 0 0 0 0
0 0 0 0 0 0 0 0 0 0 0 0 0 3 3 3 0 0 0 3 3 0 0 0 0 0 0 0 0 6 6 6 6 6 3 3 3 3 3 0 0 0 0 0
0 0 0 0 0 0 0 0 0 0 0 0 0 3 3 0 0 0 0 3 0 0 0 0 3 3 3 0 0 0 3 3 3 3 0 3 3 3 3 3 0 0 0 0
0 0 0 0 0 0 0 0 0 0 0 0 0 0 0 0 0 0 0 0 0 0 0 0 0 0 3 0 0 0 3 3 0 0 3 0 3 0 0 0 0 0 0 0
0 0 0 0 0 0 0 0 0 0 0 0 0 0 0 0 0 0 0 0 0 0 0 0 0 0 0 0 0 0 3 0 0 0 0 0 0 0 0 0 0 0 0 0
0 0 0 0 0 0 0 0 0 0 0 0 0 0 0 0 0 0 0 0 0 0 0 0 0 0 0 0 0 0 0 0 0 0 0 0 0 0 0 0 0 0 0 0
0 0 0 0 0 0 0 0 0 0 0 0 0 0 0 0 0 0 0 0 0 0 0 0 0 0 0 0 0 0 0 0 0 0 0 0 0 0 0 0 0 0 0 0
0 0 0 0 0 0 0 0 0 0 0 0 0 0 0 0 0 0 0 0 0 0 0 0 0 0 0 0 0 0 0 0 0 0 0 0 0 0 0 0 0 0 0 0
0 0 0 0 0 0 0 0 0 0 0 0 0 0 0 0 0 0 0 0 0 0 0 0 0 0 0 0 0 0 0 0 0 0 0 0 0 0 0 0 0 0 0 0
0 0 0 0 0 0 0 0 0 0 0 0 0 0 0 0 0 0 3 0 0 0 0 0 0 0 0 0 0 0 0 0 0 0 0 0 0 0 0 0 0 0 0 0
0 0 0 0 0 0 0 0 0 0 0 0 0 0 0 0 3 3 3 0 0 0 0 0 0 0 0 0 0 0 0 0 0 0 0 0 0 0 0 0 0 0 0 0
0 0 0 0 0 0 0 0 0 0 0 0 0 0 0 3 3 10 6 0 0 0 0 0 0 0 0 0 0 0 0 0 0 0 0 0 0 0 0 0 0 0 0 0
0 0 0 0 0 0 0 0 0 0 0 0 0 0 0 3 3 0 3 0 3 0 0 0 0 0 0 0 0 0 0 0 0 0 0 0 0 0 0 0 0 0 0 0
0 0 0 0 0 0 0 0 0 0 0 0 0 0 0 3 3 0 3 3 3 0 0 0 0 0 0 0 0 0 0 0 0 0 0 0 0 0 0 0 0 0 0 0
0 0 0 0 0 0 0 0 0 0 0 0 0 0 3 3 0 3 3 3 0 0 0 0 0 0 0 0 0 0 0 0 0 0 0 0 0 0 0 0 0 0 0 0
0 0 0 0 0 0 0 0 0 0 0 0 0 0 0 0 0 3 3 3 0 0 0 0 0 0 0 0 0 0 0 0 0 0 0 0 0 0 0 0 0 0 0 0
0 0 0 0 0 0 0 0 0 0 0 0 0 0 0 0 3 3 3 0 0 0 0 0 0 0 0 0 0 0 0 0 0 0 0 0 0 0 0 0 0 0 0 0
0 0 0 0 0 0 0 0 0 0 0 0 0 0 0 0 0 0 0 0 0 0 0 0 0 0 0 0 0 0 0 0 0 0 0 0 0 0 0 0 0 0 0 0
0 0 0 0 0 0 0 0 0 0 3 3 3 3 3 0 0 0 0 0 0 0 0 0 0 0 0 0 0 0 0 0 0 0 0 0 0 0 0 0 0 0 0 0
0 0 0 0 0 0 0 0 0 0 3 3 3 3 3 0 0 0 0 0 0 0 0 0 0 0 0 0 0 0 0 0 0 0 0 0 0 0 0 0 0 0 0 0
Height
5812 5815 5816 5818 5821 5822 5824 5825 5827 5828 5828 5828 5829 5829 5828 5829 5829 5829 5829 5830 5830 5831 5832 5833 5834 5835 5836 5837 5837 5839 5840 5841 5842 5844 5845 5847 5848 5850 5851 5852 5853 5854 5855 5856
5805 5807 5809 5811 5814 5816 5818 5820 5821 5822 5823 5823 5823 5824 5824 5824 5825 5825 5825 5826 5827 5828 5829 5830 5831 5832 5833 5834 5834 5836 5837 5838 5840 5841 5843 5844 5846 5847 5849 5850 5851 5852 5853 5854
5798 5800 5802 5804 5808 5810 5812 5813 5815 5816 5818 5818 5818 5819 5819 5820 5820 5821 5822 5822 5823 5824 5825 5826 5827 5829 5830 5831 5832 5833 5834 5835 5837 5839 5840 5842 5843 5845 5846 5848 5849 5849 5850 5851
5790 5793 5794 5801 5801 5804 5805 5807 5809 5810 5811 5812 5813 5814 5814 5815 5816 5817 5817 5818 5819 5820 5821 5822 5824 5825 5826 5827 5829 5830 5832 5833 5834 5836 5837 5839 5840 5842 5843 5845 5846 5846 5847 5848
5783 5784 5787 5792 5794 5797 5799 5800 5802 5804 5805 5807 5808 5808 5809 5810 5811 5812 5813 5814 5815 5816 5817 5819 5820 5821 5823 5824 5825 5827 5829 5830 5831 5833 5834 5835 5837 5838 5840 5841 5842 5843 5844 5844
5775 5777 5779 5785 5787 5790 5793 5794 5796 5798 5799 5801 5802 5803 5805 5805 5806 5807 5808 5809 5811 5812 5813 5815 5816 5818 5819 5821 5822 5824 5825 5827 5828 5829 5831 5832 5833 5835 5836 5837 5838 5839 5840 5841
5767 5769 5772 5778 5780 5783 5787 5789 5790 5791 5793 5795 5796 5797 5799 5799 5801 5802 5803 5805 5806 5807 5809 5810 5812 5813 5815 5817 5819 5820 5822 5823 5825 5826 5827 5828 5829 5831 5832 5833 5835 5836 5836 5837
5759 5762 5768 5770 5773 5777 5779 5781 5783 5785 5787 5789 5790 5791 5793 5794 5795 5797 5798 5800 5801 5802 5804 5806 5807 5809 5811 5813 5814 5816 5818 5819 5821 5822 5823 5825 5826 5827 5828 5829 5830 5831 5832 5833
5753 5758 5761 5763 5766 5769 5771 5774 5776 5779 5781 5782 5784 5785 5787 5789 5790 5791 5793 5795 5796 5797 5799 5801 5803 5805 5807 5808 5810 5812 5813 5815 5816 5818 5819 5820 5822 5823 5824 5825 5826 5827 5828 5829
5745 5749 5752 5755 5758 5761 5764 5767 5769 5772 5774 5776 5777 5779 5781 5783 5784 5786 5788 5789 5791 5792 5794 5796 5798 5800 5802 5804 5806 5807 5809 5810 5812 5813 5815 5816 5817 5819 5820 5821 5822 5823 5823 5824
5737 5741 5744 5748 5751 5754 5757 5759 5762 5764 5766 5768 5771 5772 5775 5776 5778 5780 5782 5784 5786 5787 5789 5791 5793 5795 5797 5799 5801 5803 5804 5806 5807 5809 5810 5811 5813 5814 5815 5816 5817 5818 5818 5819
5730 5734 5737 5740 5743 5746 5748 5751 5754 5756 5759 5761 5763 5765 5768 5770 5772 5774 5777 5778 5780 5782 5784 5786 5788 5790 5792 5794 5796 5798 5800 5801 5803 5804 5805 5807 5808 5809 5810 5811 5812 5812 5813 5814
5721 5725 5728 5732 5735 5738 5740 5743 5746 5749 5751 5754 5756 5758 5761 5763 5766 5768 5770 5772 5774 5776 5778 5780 5782 5785 5787 5789 5791 5792 5794 5796 5797 5799 5800 5802 5803 5804 5805 5806 5806 5807 5807 5808
5713 5717 5720 5724 5727 5730 5733 5736 5739 5741 5744 5747 5749 5751 5754 5756 5759 5762 5764 5766 5768 5770 5773 5775 5777 5779 5781 5783 5785 5787 5789 5790 5792 5793 5795 5796 5798 5799 5799 5800 5801 5801 5802 5802
5705 5709 5713 5716 5719 5722 5725 5728 5731 5734 5737 5739 5742 5744 5747 5750 5752 5755 5758 5760 5762 5764 5766 5768 5771 5773 5775 5777 5779 5781 5783 5785 5786 5788 5789 5791 5792 5792 5793 5794 5795 5795 5796 5796
5697 5701 5705 5708 5711 5714 5718 5721 5724 5727 5729 5732 5734 5737 5740 5742 5745 5748 5751 5753 5756 5758 5760 5762 5764 5766 5768 5771 5773 5775 5777 5778 5780 5781 5783 5784 5785 5786 5787 5787 5788 5789 5789 5789
5689 5694 5697 5700 5703 5707 5710 5713 5716 5719 5722 5725 5727 5730 5732 5735 5738 5741 5744 5747 5749 5751 5753 5755 5757 5760 5762 5764 5766 5768 5770 5772 5773 5775 5776 5777 5778 5779 5780 5781 5781 5782 5782 5782
5682 5686 5690 5693 5696 5699 5702 5705 5708 5711 5715 5717 5720 5723 5725 5728 5731 5733 5736 5739 5742 5744 5746 5748 5751 5753 5756 5758 5760 5761 5763 5765 5766 5768 5769 5770 5771 5772 5773 5773 5774 5774 5775 5775
5675 5679 5682 5686 5689 5692 5695 5698 5701 5704 5707 5710 5713 5715 5718 5721 5723 5726 5729 5731 5734 5737 5739 5742 5744 5746 5749 5751 5753 5755 5756 5758 5759 5760 5762 5763 5764 5765 5766 5766 5767 5767 5767 5767
5668 5672 5675 5679 5682 5685 5688 5691 5694 5697 5700 5702 5705 5708 5711 5713 5716 5719 5722 5725 5727 5730 5732 5735 5737 5739 5741 5744 5746 5748 5749 5751 5752 5753 5754 5756 5757 5757 5758 5759 5759 5759 5760 5760
5662 5665 5668 5672 5675 5678 5681 5684 5687 5690 5692 5695 5698 5701 5703 5706 5709 5712 5715 5718 5721 5723 5726 5729 5731 5733 5735 5737 5739 5741 5742 5744 5745 5746 5748 5749 5749 5750 5751 5751 5752 5752 5752 5752
5655 5658 5661 5665 5668 5671 5674 5677 5679 5682 5685 5688 5691 5694 5697 5700 5703 5706 5709 5712 5715 5717 5720 5722 5724 5727 5728 5730 5732 5734 5736 5737 5738 5739 5740 5741 5742 5743 5743 5744 5744 5744 5744 5743
5648 5651 5654 5658 5660 5663 5666 5669 5672 5675 5678 5681 5684 5687 5690 5694 5696 5700 5703 5706 5708 5711 5713 5716 5718 5720 5722 5724 5726 5727 5729 5730 5731 5732 5733 5734 5734 5735 5735 5735 5735 5735 5735 5735
5641 5644 5647 5650 5653 5656 5659 5662 5665 5668 5671 5674 5677 5681 5684 5687 5690 5693 5696 5699 5702 5705 5707 5709 5712 5714 5716 5718 5719 5721 5722 5724 5725 5726 5726 5727 5727 5727 5727 5727 5727 5727 5726 5726
5634 5637 5640 5643 5646 5649 5652 5655 5658 5661 5664 5667 5670 5673 5677 5680 5683 5687 5690 5693 5696 5698 5701 5703 5705 5708 5710 5711 5713 5714 5716 5717 5718 5719 5719 5719 5719 5719 5719 5719 5719 5718 5718 5717
5628 5631 5634 5637 5640 5642 5645 5648 5651 5654 5657 5660 5663 5666 5670 5673 5676 5680 5683 5686 5689 5692 5695 5697 5699 5701 5703 5705 5706 5708 5709 5710 5711 5712 5712 5712 5712 5712 5711 5711 5711 5710 5709 5708
5621 5624 5627 5630 5633 5636 5639 5642 5645 5648 5651 5654 5657 5660 5662 5666 5669 5672 5676 5679 5682 5685 5688 5690 5692 5694 5696 5698 5699 5701 5702 5703 5704 5704 5705 5705 5704 5704 5704 5703 5702 5702 5701 5699
Wind_Speed
27 26 27 26 25 25 24 22 22 21 21 22 20 20 20 19 18 18 17 16 15 15 14 13 13 13 13 13 13 13 13 13 13 12 12 12 11 10 10 9 9 9 9 8
29 28 28 27 26 25 24 23 23 23 22 22 22 21 20 19 18 18 17 16 16 16 15 15 15 14 14 13 12 13 13 12 13 13 13 12 12 12 11 11 11 10 10 10
30 29 29 28 26 25 25 24 24 23 23 23 23 21 20 20 19 19 18 17 16 16 17 16 15 15 14 13 13 13 13 13 12 13 12 13 13 13 12 11 11 11 11 11
31 30 31 28 27 26 26 25 26 25 23 23 23 22 21 20 19 19 19 18 17 17 17 16 15 15 14 13 14 14 13 13 12 13 14 14 14 14 13 13 13 13 13 13
32 32 32 30 27 26 27 27 26 24 24 23 23 22 21 21 20 19 19 18 18 17 17 16 16 15 15 14 15 14 13 13 13 14 14 14 15 15 14 14 14 14 14 14
33 33 33 30 27 26 26 27 25 24 24 23 23 23 21 21 21 20 19 19 18 18 17 17 17 17 16 15 15 15 15 14 13 13 14 14 14 15 15 15 15 14 15 15
33 33 33 30 28 26 27 26 24 24 23 23 23 23 22 21 21 21 20 20 19 19 18 18 17 17 17 17 16 15 15 15 15 14 14 14 14 14 14 15 14 14 15 15
33 33 32 29 28 27 27 26 25 24 23 23 23 23 22 22 21 21 20 20 20 20 19 18 18 17 17 18 18 17 16 16 16 16 15 15 15 15 15 16 15 15 15 15
34 33 31 30 29 27 27 26 25 23 23 24 24 24 23 22 22 21 20 20 20 20 20 19 18 18 18 17 18 18 18 18 18 17 16 16 16 15 15 15 15 16 16 16
34 33 32 31 29 28 28 27 26 25 25 25 25 24 24 23 23 22 21 20 20 20 20 20 19 19 19 18 17 17 17 17 18 17 16 17 17 16 16 16 16 16 16 17
34 33 33 32 29 28 28 27 27 26 27 26 25 25 25 24 23 22 21 21 21 21 20 20 19 20 20 19 18 18 17 17 17 17 17 17 18 17 17 17 17 17 17 17
33 33 33 31 29 28 28 27 27 27 27 27 27 26 26 25 24 23 22 21 21 21 21 21 20 20 20 20 19 19 18 18 18 17 17 17 17 17 17 17 17 18 18 18
33 33 34 31 30 29 29 28 28 28 28 27 27 26 26 25 24 24 23 22 21 21 21 21 21 21 21 21 21 20 19 19 18 18 18 18 17 17 17 17 18 18 18 19
33 33 32 31 29 29 29 28 29 29 28 28 28 27 26 26 25 24 24 23 23 22 23 22 22 22 22 22 22 21 21 21 20 20 19 19 19 19 18 18 18 19 19 20
33 32 32 32 30 29 29 29 29 28 28 28 28 27 27 26 26 25 25 24 24 24 24 24 23 22 22 22 22 23 22 22 22 22 21 21 20 20 20 20 20 20 21 21
31 31 30 30 30 29 29 29 28 28 27 27 27 26 26 26 27 26 26 25 25 24 23 23 23 22 23 23 23 23 23 23 23 23 23 23 22 22 22 22 21 22 22 22
32 31 30 29 29 29 29 28 28 28 28 27 26 26 26 27 27 27 27 26 25 24 24 23 23 23 22 23 23 24 24 24 23 23 24 23 23 23 23 23 23 24 23 23
29 29 28 28 28 28 29 29 28 27 28 28 27 27 27 27 27 27 27 26 25 24 24 23 23 23 23 23 23 23 22 22 23 23 24 24 23 23 24 24 24 24 24 24
29 29 28 28 28 27 28 28 28 28 28 28 28 28 28 27 27 27 26 26 26 25 24 24 24 25 24 23 23 23 23 23 23 23 23 24 24 24 24 24 24 24 24 24
28 28 28 28 28 27 27 28 28 28 27 28 28 28 28 28 27 26 25 25 25 24 24 23 23 23 23 23 22 22 22 22 22 23 23 23 24 24 24 24 24 24 24 24
27 27 28 28 28 28 27 28 28 28 27 27 27 28 27 27 26 26 25 25 24 24 23 23 22 22 22 22 22 22 22 21 21 22 22 22 23 24 24 24 24 24 24 25
26 27 28 28 28 28 28 27 27 28 27 27 27 26 26 26 26 27 27 25 24 24 24 24 23 22 21 22 22 22 21 21 21 21 22 22 23 23 24 24 25 25 26 27
25 26 27 27 27 27 28 27 27 27 27 27 27 26 25 25 25 26 26 25 24 24 24 24 24 23 22 22 21 21 21 21 21 21 21 22 23 23 24 25 25 26 27 28
26 26 27 27 26 26 26 27 27 27 28 28 27 27 26 26 25 25 26 25 24 24 23 23 23 23 23 22 22 22 22 21 21 21 21 22 23 23 24 25 26 26 27 27
25 25 25 25 25 25 25 25 26 27 27 27 28 28 27 27 26 25 26 26 26 24 23 23 23 22 22 22 22 21 21 22 22 22 22 22 23 23 23 24 25 26 27 28
24 24 24 24 24 24 24 24 25 26 26 26 27 27 27 27 27 26 26 26 26 25 24 24 23 23 23 23 22 22 22 22 23 22 22 22 23 23 24 24 25 26 27 28
25 25 24 24 24 24 25 25 25 25 25 24 25 26 27 28 28 27 27 26 27 26 25 25 25 25 24 24 24 23 23 23 23 23 24 24 23 23 24 24 25 26 27 28
Wind_Direction
246 252 255 254 254 256 258 259 258 257 260 265 268 271 274 277 275 273 272 269 264 260 258 258 254 249 249 252 251 248 247 246 244 240 238 240 242 241 243 247 248 254 255 256
245 247 252 252 252 253 256 256 257 256 256 262 265 267 270 274 273 270 270 266 261 258 254 254 253 251 250 250 248 244 246 246 242 239 239 240 239 242 244 246 249 255 256 256
246 246 249 250 250 252 255 255 256 258 259 260 263 265 268 271 269 268 267 265 260 256 253 251 251 252 248 245 244 245 247 244 241 239 240 238 236 240 245 250 253 255 255 254
247 246 248 250 251 251 254 255 256 257 259 261 263 263 266 269 267 264 264 264 262 256 253 250 249 251 246 242 242 242 244 242 242 241 242 241 239 241 244 249 254 254 254 257
246 247 249 249 250 251 253 254 255 256 257 260 262 263 264 264 263 261 260 260 261 254 250 248 248 247 244 241 241 241 243 245 243 243 245 246 243 244 247 251 254 256 257 257
245 246 249 250 250 250 252 253 253 253 255 257 258 260 260 261 259 257 256 255 255 253 249 248 249 246 245 243 242 242 244 247 249 248 248 248 248 249 251 254 256 258 260 263
244 246 248 248 249 249 250 253 253 253 254 255 257 258 259 258 257 256 256 253 252 252 251 248 247 245 243 242 243 243 245 246 249 251 250 249 251 253 255 254 256 259 261 262
242 244 245 246 247 248 251 253 253 251 252 255 256 257 257 257 256 255 255 251 249 249 247 246 246 244 242 242 244 244 246 249 252 253 253 253 253 254 256 256 257 259 260 262
242 244 247 247 247 249 249 250 252 252 252 254 254 254 254 255 254 253 253 251 249 247 245 245 244 243 243 245 245 246 248 249 252 252 251 250 251 253 256 258 260 262 261 263
241 242 244 246 247 247 248 250 250 250 251 251 252 252 251 252 253 252 250 250 247 246 245 244 242 241 242 243 245 244 246 248 249 250 249 249 249 251 255 259 260 262 265 265
241 242 244 245 246 248 249 249 247 247 248 249 250 250 249 249 250 250 248 249 245 243 243 242 243 242 241 242 243 243 245 247 248 250 249 249 251 253 256 259 261 263 266 267
240 241 244 245 245 248 248 248 247 246 246 247 249 248 248 247 246 246 246 247 245 242 242 243 242 241 241 241 243 246 250 251 248 248 249 252 255 255 257 260 262 263 264 266
238 240 243 245 245 245 245 246 246 246 246 247 247 247 247 245 244 244 245 245 244 244 244 244 242 241 240 242 244 246 249 251 249 249 250 253 255 257 258 260 263 265 266 268
238 240 241 241 243 243 244 245 245 245 245 246 247 246 246 244 243 243 244 243 245 247 246 244 243 242 242 244 246 247 250 251 252 252 254 256 258 259 259 261 264 266 269 271
236 237 239 240 241 242 242 244 244 244 246 247 246 245 245 244 242 242 243 244 246 247 246 245 243 243 244 245 246 248 250 251 252 253 255 257 259 261 260 261 264 267 270 273
235 236 238 240 239 241 242 244 244 244 246 246 245 243 243 243 242 241 242 244 245 244 244 242 241 243 243 244 245 248 250 252 253 253 256 258 260 262 262 262 264 267 270 273
236 236 238 239 240 241 242 242 243 244 244 244 243 243 243 243 242 241 242 243 244 243 242 243 242 242 242 245 247 249 251 253 254 255 256 259 262 262 262 263 266 268 271 274
236 236 237 238 239 238 238 240 241 242 242 242 243 243 242 243 241 240 240 241 242 241 241 241 241 241 244 247 248 250 252 254 255 257 258 259 263 264 263 265 267 268 271 273
234 235 236 237 237 237 240 240 241 242 243 242 242 241 241 241 240 239 239 239 240 240 241 242 242 243 247 249 249 251 253 255 257 257 259 259 261 263 265 267 269 270 271 273
234 235 236 236 236 238 240 240 241 241 241 240 241 240 240 240 238 237 237 237 237 239 240 243 244 245 246 248 250 252 254 255 256 259 260 261 262 263 264 268 270 272 273 274
236 236 237 236 237 237 239 241 240 240 240 239 240 239 238 236 235 235 236 237 237 238 239 241 244 246 248 249 250 252 254 255 258 260 261 262 263 265 265 267 270 272 274 276
238 239 239 239 239 240 241 240 240 239 236 236 236 236 236 233 233 234 234 234 235 237 239 241 244 247 250 250 250 252 254 257 259 260 261 262 263 265 267 269 271 273 274 276
237 238 239 240 240 241 240 239 238 235 233 234 235 235 234 233 232 233 233 233 235 238 239 241 243 245 248 250 250 253 255 257 261 262 262 264 266 267 268 270 272 274 276 277
237 237 238 239 239 238 237 236 235 236 235 234 235 233 232 233 234 234 233 234 237 238 238 240 242 244 247 249 252 253 255 258 263 264 266 268 269 270 271 273 274 275 277 278
238 237 236 237 238 237 235 234 234 235 235 236 234 232 232 233 233 233 234 235 236 236 237 239 242 244 247 249 252 254 255 258 262 265 269 272 273 272 274 275 277 278 278 279
236 236 236 236 235 235 233 233 234 235 236 236 234 234 233 232 231 232 234 235 235 237 239 241 241 243 246 248 251 255 258 261 262 266 270 275 277 276 275 276 279 280 282 283
235 236 236 236 235 233 232 233 233 234 235 235 236 235 232 231 230 232 234 236 238 239 240 241 241 243 245 248 251 254 258 262 265 267 270 274 276 276 276 277 278 280 283 285